DW5288 Weather Reports


Display with metric or nautical units.
time (UTC)temp
F
wind
direction
speed
MPH
gust
MPH
rain 1hr
in
rain 24hr
in
rain mn
in
humidity
%
barometer
mb
20260510230804 69 95 3.0 6.0 0.00 0.05 0.05 39 1017.1
20260510230305 69 314 2.0 12.0 0.00 0.05 0.05 40 1017.0
20260510225804 69 27 6.0 10.0 0.00 0.05 0.05 40 1017.1
20260510225306 69 120 3.0 7.0 0.00 0.05 0.05 38 1017.2
20260510224805 69 141 2.0 7.0 0.00 0.05 0.05 38 1017.2
20260510224509 69 127 0.0 8.0 0.00 0.05 0.05 39 1017.3
20260510223805 69 54 2.0 9.0 0.00 0.05 0.05 38 1017.3
20260510223305 70 143 6.0 10.0 0.00 0.05 0.05 38 1017.2
20260510223103 70 118 4.0 10.0 0.00 0.05 0.05 38 1017.3
20260510222805 70 36 6.0 9.0 0.00 0.05 0.05 37 1017.3
20260510222306 70 38 7.0 10.0 0.00 0.05 0.05 39 1017.3
20260510221805 70 38 5.0 8.0 0.00 0.05 0.05 39 1017.3
20260510221503 69 62 2.0 10.0 0.00 0.05 0.05 39 1017.4
20260510221304 69 107 4.0 10.0 0.00 0.05 0.05 39 1017.4
20260510220805 69 10 3.0 12.0 0.00 0.05 0.05 39 1017.4
20260510220305 69 45 5.0 10.0 0.00 0.05 0.05 40 1017.4
20260510220106 69 352 3.0 10.0 0.00 0.05 0.05 40 1017.4
20260510215804 69 62 6.0 9.0 0.00 0.05 0.05 40 1017.4
20260510215306 69 83 5.0 10.0 0.00 0.05 0.05 40 1017.4
20260510214804 69 47 6.0 9.0 0.00 0.05 0.05 40 1017.5
20260510214503 68 39 3.0 8.0 0.00 0.05 0.05 41 1017.5
20260510214305 68 20 2.0 5.0 0.00 0.05 0.05 40 1017.5
20260510213805 68 358 4.0 7.0 0.00 0.05 0.05 40 1017.5
20260510213305 67 237 2.0 5.0 0.00 0.05 0.05 40 1017.6
20260510213111 66 322 1.0 8.0 0.00 0.05 0.05 40 1017.6
20260510212805 66 63 3.0 8.0 0.00 0.05 0.05 39 1017.7
20260510212306 66 109 6.0 12.0 0.00 0.05 0.05 38 1017.8
20260510211805 66 90 5.0 9.0 0.00 0.05 0.05 39 1017.7
20260510211503 66 144 5.0 11.0 0.00 0.05 0.05 40 1017.8
20260510211305 66 124 5.0 12.0 0.00 0.05 0.05 40 1017.7
20260510210805 67 102 6.0 9.0 0.00 0.05 0.05 41 1017.9
20260510210305 67 105 6.0 10.0 0.00 0.05 0.05 44 1017.9
20260510205306 65 75 2.0 12.0 0.00 0.05 0.05 44 1018.0
20260510204805 65 107 7.0 13.0 0.00 0.05 0.05 44 1018.1
20260510204503 65 89 4.0 11.0 0.00 0.05 0.05 44 1018.1
20260510204304 66 127 8.0 12.0 0.00 0.05 0.05 44 1018.1
20260510203804 66 144 6.0 9.0 0.00 0.05 0.05 44 1018.1
20260510203304 66 119 5.0 9.0 0.00 0.05 0.05 46 1018.1
20260510203103 65 102 3.0 12.0 0.00 0.05 0.05 47 1018.2
20260510202804 65 38 3.0 12.0 0.00 0.05 0.05 47 1018.1
20260510202306 65 87 10.0 14.0 0.00 0.05 0.05 46 1018.1
20260510201503 64 102 4.0 14.0 0.00 0.05 0.05 48 1018.1
20260510201304 65 30 10.0 14.0 0.00 0.05 0.05 47 1018.1
20260510200805 64 80 6.0 13.0 0.00 0.05 0.05 47 1018.1
20260510200305 64 66 9.0 13.0 0.00 0.05 0.05 50 1018.1
20260510195306 64 108 10.0 13.0 0.00 0.05 0.05 48 1018.0
20260510194503 63 59 5.0 11.0 0.00 0.05 0.05 52 1018.0
20260510194304 63 45 3.0 12.0 0.00 0.05 0.05 52 1018.0
20260510193804 63 50 6.0 12.0 0.00 0.05 0.05 54 1018.1
20260510193108 62 81 3.0 12.0 0.00 0.05 0.05 57 1018.1
20260510192804 62 104 4.0 12.0 0.00 0.05 0.05 55 1018.1
20260510192307 62 105 6.0 12.0 0.00 0.05 0.05 56 1018.2
20260510191805 62 94 5.0 12.0 0.00 0.05 0.05 58 1018.3
20260510191503 61 37 5.0 14.0 0.00 0.05 0.05 58 1018.3
20260510191305 61 100 7.0 12.0 0.00 0.05 0.05 58 1018.4
20260510190804 61 128 6.0 14.0 0.00 0.05 0.05 58 1018.4
20260510190305 61 114 8.0 13.0 0.00 0.05 0.05 59 1018.5
20260510190116 60 81 4.0 12.0 0.00 0.05 0.05 58 1018.4
20260510185805 61 104 9.0 12.0 0.00 0.05 0.05 61 1018.4
20260510185306 60 57 3.0 9.0 0.00 0.05 0.05 61 1018.4
20260510184805 60 98 8.0 12.0 0.00 0.05 0.05 61 1018.4
20260510184504 60 107 5.0 12.0 0.00 0.05 0.05 61 1018.4
20260510184304 60 83 7.0 12.0 0.00 0.05 0.05 62 1018.4
20260510183804 60 73 5.0 10.0 0.00 0.05 0.05 64 1018.5
20260510183304 60 41 4.0 7.0 0.00 0.05 0.05 64 1018.5
20260510183106 59 64 2.0 11.0 0.00 0.05 0.05 64 1018.5
20260510182804 59 52 3.0 12.0 0.00 0.05 0.05 64 1018.6
20260510182306 59 63 7.0 10.0 0.00 0.05 0.05 64 1018.6
20260510181804 59 46 5.0 12.0 0.00 0.05 0.05 65 1018.7
20260510181503 59 15 5.0 13.0 0.00 0.05 0.05 65 1018.7
20260510181305 59 39 7.0 12.0 0.00 0.05 0.05 65 1018.7
20260510180804 59 57 8.0 13.0 0.00 0.05 0.05 66 1018.7
20260510180304 59 32 9.0 14.0 0.00 0.05 0.05 67 1018.6
20260510180108 59 77 8.0 13.0 0.00 0.05 0.05 67 1018.6
20260510175804 59 43 7.0 12.0 0.00 0.05 0.05 69 1018.7
20260510175306 58 30 9.0 13.0 0.00 0.05 0.05 69 1018.6
20260510174805 58 37 10.0 14.0 0.00 0.05 0.05 68 1018.6
20260510174505 57 46 10.0 14.0 0.00 0.05 0.05 67 1018.7
20260510174305 58 45 10.0 13.0 0.00 0.05 0.05 68 1018.7
20260510173805 57 51 9.0 14.0 0.00 0.05 0.05 68 1018.7
20260510173304 57 34 10.0 14.0 0.00 0.05 0.05 68 1018.7
20260510173104 57 20 9.0 14.0 0.00 0.05 0.05 68 1018.7
20260510172805 57 45 10.0 14.0 0.01 0.05 0.05 69 1018.8
20260510171805 57 76 10.0 14.0 0.01 0.05 0.05 67 1018.8
20260510171502 56 78 10.0 14.0 0.01 0.05 0.05 66 1018.7
20260510171304 57 58 10.0 14.0 0.01 0.05 0.05 67 1018.7
20260510170804 57 64 10.0 14.0 0.01 0.05 0.05 67 1018.5
20260510170305 56 69 10.0 15.0 0.01 0.05 0.05 69 1018.5
20260510165306 56 89 12.0 14.0 0.01 0.05 0.05 69 1018.4
20260510164805 56 72 8.0 12.0 0.01 0.05 0.05 70 1018.4
20260510164506 56 71 9.0 14.0 0.01 0.05 0.05 70 1018.4
20260510164304 56 70 10.0 14.0 0.01 0.05 0.05 71 1018.5
20260510163804 56 70 9.0 12.0 0.01 0.05 0.05 72 1018.4
20260510163305 56 65 8.0 12.0 0.01 0.05 0.05 73 1018.4
20260510163157 56 70 8.0 13.0 0.00 0.04 0.04 73 1018.3
20260510162804 56 93 9.0 13.0 0.00 0.04 0.04 73 1018.2
20260510162306 56 71 8.0 12.0 0.00 0.04 0.04 74 1018.2
20260510161805 56 60 8.0 12.0 0.00 0.04 0.04 75 1018.0
20260510161503 55 65 9.0 12.0 0.00 0.04 0.04 75 1017.9
20260510161304 56 55 7.0 12.0 0.00 0.04 0.04 75 1017.9
20260510160304 56 69 9.0 12.0 0.00 0.04 0.04 76 1017.8
20260510160105 56 62 9.0 14.0 0.00 0.04 0.04 76 1017.7
20260510154804 56 53 7.0 12.0 0.00 0.04 0.04 77 1017.5
20260510154503 55 59 7.0 17.0 0.00 0.04 0.04 77 1017.5
20260510154305 56 44 10.0 13.0 0.00 0.04 0.04 77 1017.4
20260510153804 56 46 10.0 17.0 0.00 0.04 0.04 79 1017.4
20260510153305 55 73 8.0 12.0 0.00 0.04 0.04 81 1017.3
20260510153111 55 73 7.0 13.0 0.00 0.04 0.04 81 1017.3
20260510152804 55 33 10.0 13.0 0.00 0.04 0.04 82 1017.3
20260510151805 54 65 12.0 16.0 0.00 0.04 0.04 83 1017.2
20260510151502 53 62 11.0 16.0 0.00 0.04 0.04 84 1017.1
20260510151304 53 48 11.0 16.0 0.00 0.04 0.04 85 1017.0
20260510150804 53 72 11.0 16.0 0.00 0.04 0.04 86 1017.0
20260510150304 52 53 10.0 14.0 0.00 0.04 0.04 87 1016.9
20260510150108 51 69 9.0 15.0 0.00 0.04 0.04 87 1016.9
20260510145804 52 62 11.0 14.0 0.00 0.04 0.04 87 1016.8
20260510144805 51 51 12.0 15.0 0.00 0.04 0.04 87 1016.7
20260510144503 50 46 12.0 16.0 0.00 0.04 0.04 87 1016.7
20260510144305 51 54 13.0 15.0 0.00 0.04 0.04 87 1016.7
20260510143805 50 60 12.0 16.0 0.00 0.04 0.04 88 1016.7
20260510143304 50 53 10.0 15.0 0.00 0.04 0.04 88 1016.8
20260510143112 50 45 10.0 16.0 0.00 0.04 0.04 88 1016.8
20260510142804 50 51 10.0 16.0 0.00 0.04 0.04 88 1016.7
20260510142306 50 52 13.0 17.0 0.00 0.04 0.04 88 1016.6
20260510141804 50 46 14.0 18.0 0.00 0.04 0.04 88 1016.6
20260510141503 50 44 11.0 18.0 0.00 0.04 0.04 89 1016.5
20260510140804 50 45 12.0 17.0 0.00 0.04 0.04 89 1016.5
20260510135804 49 37 13.0 17.0 0.00 0.04 0.04 89 1016.7
20260510135306 49 33 13.0 18.0 0.00 0.04 0.04 89 1016.7
20260510134503 49 32 13.0 21.0 0.00 0.04 0.04 90 1016.4
20260510134305 49 41 16.0 21.0 0.00 0.04 0.04 90 1016.4
20260510133805 49 36 14.0 20.0 0.00 0.04 0.04 90 1016.2
20260510133304 49 39 16.0 21.0 0.00 0.04 0.04 90 1015.9
20260510133103 49 31 15.0 21.0 0.00 0.04 0.04 90 1015.9
20260510132805 49 37 14.0 18.0 0.00 0.04 0.04 90 1015.9
20260510132306 49 37 14.0 17.0 0.00 0.04 0.04 90 1015.7
20260510131805 49 40 14.0 18.0 0.00 0.04 0.04 90 1015.6
20260510131503 48 42 13.0 18.0 0.00 0.04 0.04 90 1015.5
20260510130805 49 61 13.0 16.0 0.00 0.04 0.04 90 1015.2
20260510130304 49 73 13.0 18.0 0.00 0.04 0.04 90 1014.8
20260510125804 49 78 12.0 20.0 0.00 0.04 0.04 90 1014.6
20260510125306 49 77 13.0 16.0 0.00 0.04 0.04 90 1014.7
20260510124804 50 72 14.0 18.0 0.00 0.04 0.04 90 1014.8
20260510124502 49 76 13.0 17.0 0.00 0.04 0.04 90 1014.8
20260510124305 50 78 14.0 17.0 0.00 0.04 0.04 90 1014.8
20260510123804 50 66 12.0 17.0 0.00 0.04 0.04 90 1015.1
20260510123304 50 57 13.0 16.0 0.00 0.04 0.04 90 1015.1
20260510123102 50 58 10.0 17.0 0.00 0.04 0.04 90 1015.2
20260510122804 50 43 13.0 17.0 0.00 0.04 0.04 89 1015.4
20260510122306 50 36 13.0 16.0 0.00 0.04 0.04 89 1015.5
20260510121804 51 34 11.0 15.0 0.01 0.04 0.04 89 1015.6
20260510121504 50 36 10.0 15.0 0.01 0.04 0.04 89 1015.5
20260510121304 51 25 10.0 15.0 0.01 0.04 0.04 89 1015.7
20260510120804 51 4 10.0 15.0 0.02 0.04 0.04 89 1015.9
20260510120304 51 353 11.0 16.0 0.02 0.04 0.04 89 1015.9
20260510115804 51 5 10.0 14.0 0.02 0.04 0.04 88 1015.7
20260510115306 51 6 12.0 20.0 0.02 0.04 0.04 88 1015.6
20260510114506 50 4 14.0 23.0 0.03 0.04 0.04 88 1015.3
20260510113804 51 356 17.0 23.0 0.04 0.04 0.04 88 1015.0
20260510113304 51 351 16.0 22.0 0.04 0.04 0.04 88 1015.0
20260510113103 51 339 15.0 22.0 0.04 0.04 0.04 88 1015.0
20260510112804 51 351 16.0 20.0 0.04 0.04 0.04 87 1015.0
20260510112306 51 4 13.0 17.0 0.04 0.04 0.04 87 1014.7
20260510111804 51 25 13.0 16.0 0.03 0.03 0.03 87 1014.1
20260510111505 51 42 13.0 18.0 0.03 0.03 0.03 87 1013.9
20260510110804 51 52 14.0 18.0 0.02 0.02 0.02 86 1013.6
20260510110304 51 55 14.0 20.0 0.02 0.02 0.02 85 1013.4
20260510110109 51 66 15.0 20.0 0.02 0.02 0.02 85 1013.3
20260510105805 52 59 16.0 20.0 0.02 0.02 0.02 85 1013.2
20260510105306 52 52 17.0 21.0 0.02 0.02 0.02 84 1012.9
20260510104805 52 48 18.0 23.0 0.01 0.01 0.01 84 1012.8
20260510104502 52 59 17.0 22.0 0.01 0.01 0.01 83 1012.8
20260510104304 52 50 16.0 22.0 0.00 0.00 0.00 83 1012.8
20260510103804 52 39 15.0 20.0 0.00 0.00 0.00 82 1012.9
20260510103304 53 34 15.0 20.0 0.00 0.00 0.00 81 1012.9
20260510103104 52 36 15.0 20.0 0.00 0.00 0.00 81 1012.8
20260510102804 53 34 15.0 20.0 0.00 0.00 0.00 80 1012.9
20260510102306 54 23 13.0 16.0 0.00 0.00 0.00 78 1012.9
20260510101804 54 11 12.0 17.0 0.00 0.00 0.00 77 1012.8
20260510101503 54 10 13.0 18.0 0.00 0.00 0.00 75 1012.8
20260510101304 55 359 13.0 18.0 0.00 0.00 0.00 74 1012.6
20260510100804 55 2 12.0 16.0 0.00 0.00 0.00 72 1012.3
20260510100304 55 28 12.0 16.0 0.00 0.00 0.00 71 1011.9
20260510100122 55 52 10.0 17.0 0.00 0.00 0.00 70 1011.6
20260510095804 55 84 12.0 17.0 0.00 0.00 0.00 70 1011.2
20260510095306 55 68 12.0 17.0 0.00 0.00 0.00 70 1011.2
20260510094804 55 78 14.0 20.0 0.00 0.00 0.00 70 1011.0
20260510094504 54 72 12.0 18.0 0.00 0.00 0.00 71 1010.9
20260510093804 54 82 13.0 17.0 0.00 0.00 0.00 72 1010.7
20260510093304 54 87 13.0 16.0 0.00 0.00 0.00 72 1010.6
20260510093003 54 93 11.0 21.0 0.00 0.00 0.00 72 1010.6
20260510092306 54 64 15.0 21.0 0.00 0.00 0.00 71 1010.5
20260510091804 54 68 14.0 18.0 0.00 0.00 0.00 71 1010.4
20260510091602 54 80 14.0 22.0 0.00 0.00 0.00 71 1010.3
20260510091304 55 79 16.0 22.0 0.00 0.00 0.00 71 1010.3
20260510090804 55 79 17.0 22.0 0.00 0.00 0.00 71 1010.1
20260510090304 55 80 17.0 24.0 0.00 0.00 0.00 71 1010.1
20260510090007 54 68 17.0 25.0 0.00 0.00 0.00 71 1010.1
20260510085804 55 80 18.0 25.0 0.00 0.00 0.00 70 1010.1
20260510085306 55 81 17.0 23.0 0.00 0.00 0.00 70 1010.0
20260510084804 55 77 17.0 26.0 0.00 0.00 0.00 70 1009.9
20260510084614 54 57 19.0 27.0 0.00 0.00 0.00 70 1009.9
20260510084304 55 70 20.0 26.0 0.00 0.00 0.00 70 1009.8
20260510083804 55 67 22.0 26.0 0.00 0.00 0.00 69 1009.8
20260510083304 55 69 21.0 28.0 0.00 0.00 0.00 69 1009.9
20260510083014 55 64 20.0 27.0 0.00 0.00 0.00 69 1010.0
20260510082306 55 65 20.0 26.0 0.00 0.00 0.00 68 1010.2
20260510081604 55 69 22.0 29.0 0.00 0.00 0.00 67 1010.4
20260510081304 56 56 20.0 28.0 0.00 0.00 0.00 67 1010.6
20260510080804 56 49 19.0 25.0 0.00 0.00 0.00 67 1010.8
20260510080303 56 56 18.0 26.0 0.00 0.00 0.00 66 1011.0
20260510080010 56 46 19.0 27.0 0.00 0.00 0.00 66 1011.0
20260510075804 56 49 18.0 26.0 0.00 0.00 0.00 66 1011.2
20260510075306 56 49 18.0 25.0 0.00 0.00 0.00 65 1011.3
20260510074804 56 50 20.0 24.0 0.00 0.00 0.00 65 1011.3
20260510074605 56 52 19.0 25.0 0.00 0.00 0.00 65 1011.2
20260510074305 56 55 17.0 25.0 0.00 0.00 0.00 65 1011.3
20260510073805 56 48 18.0 24.0 0.00 0.00 0.00 64 1011.3
20260510073304 57 45 17.0 23.0 0.00 0.00 0.00 64 1011.3
20260510073003 56 59 18.0 27.0 0.00 0.00 0.00 64 1011.2
20260510072804 57 48 19.0 26.0 0.00 0.00 0.00 64 1011.2
20260510072306 57 52 20.0 26.0 0.00 0.00 0.00 63 1010.9
20260510071804 57 47 22.0 26.0 0.00 0.00 0.00 63 1010.6
20260510071603 56 64 21.0 28.0 0.00 0.00 0.00 63 1010.5
20260510070304 57 61 21.0 28.0 0.00 0.00 0.00 62 1010.1
20260510070003 57 56 21.0 28.0 0.00 0.00 0.00 62 1010.0
20260510065804 57 70 19.0 26.0 0.00 0.00 0.00 62 1010.1
20260510065306 57 70 20.0 29.0 0.00 0.00 0.00 62 1010.1
20260510064602 57 58 19.0 30.0 0.00 0.00 0.00 61 1010.0
20260510064304 57 61 22.0 30.0 0.00 0.00 0.00 61 1009.9
20260510063304 58 63 23.0 32.0 0.00 0.00 0.00 60 1009.6
20260510063007 57 73 20.0 32.0 0.00 0.00 0.00 60 1009.4
20260510062307 58 61 25.0 32.0 0.00 0.00 0.00 60 1009.1
20260510061804 58 66 26.0 35.0 0.00 0.00 0.00 60 1009.1
20260510061602 58 55 26.0 35.0 0.00 0.00 0.00 59 1009.0
20260510061304 58 65 26.0 35.0 0.00 0.00 0.00 60 1009.2
20260510060804 58 58 24.0 32.0 0.00 0.00 0.00 60 1009.2
20260510060304 58 55 22.0 31.0 0.00 0.00 0.00 61 1009.4
20260510060002 58 55 22.0 32.0 0.00 0.00 0.00 61 1009.5
20260510055804 59 50 21.0 30.0 0.00 0.00 0.00 61 1009.3
20260510054804 59 49 24.0 29.0 0.00 0.00 0.00 61 1008.7
20260510054603 59 44 23.0 31.0 0.00 0.00 0.00 61 1008.7
20260510054304 59 48 24.0 31.0 0.00 0.00 0.00 61 1008.5
20260510053804 59 49 22.0 29.0 0.00 0.00 0.00 61 1008.5
20260510053304 59 44 22.0 35.0 0.00 0.00 0.00 60 1008.4
20260510053006 59 45 23.0 34.0 0.00 0.00 0.00 59 1008.3
20260510052804 60 49 24.0 31.0 0.00 0.00 0.00 59 1008.0
20260510052306 60 42 21.0 28.0 0.00 0.00 0.00 58 1008.2
20260510051804 60 42 21.0 29.0 0.00 0.00 0.00 58 1008.1
20260510051609 59 39 21.0 29.0 0.00 0.00 0.00 59 1008.0
20260510051304 60 40 20.0 26.0 0.00 0.00 0.00 59 1008.0
20260510050804 60 39 22.0 26.0 0.00 0.00 0.00 60 1007.8
20260510050005 60 49 21.0 29.0 0.00 0.00 0.00 60 1007.3
20260510045804 60 56 20.0 26.0 0.00 0.00 0.00 60 1007.1
20260510045306 60 68 18.0 26.0 0.00 0.00 0.00 60 1006.5
20260510044602 60 64 19.0 27.0 0.00 0.00 0.00 60 1006.3
20260510044304 61 68 20.0 26.0 0.00 0.00 0.00 60 1006.1
20260510043804 61 73 20.0 26.0 0.00 0.00 0.00 60 1005.9
20260510043001 61 94 16.0 26.0 0.00 0.00 0.00 60 1005.6
20260510042804 61 72 19.0 26.0 0.00 0.00 0.00 60 1005.5
20260510042306 61 75 17.0 22.0 0.00 0.00 0.00 59 1005.4
20260510041602 61 65 17.0 24.0 0.00 0.00 0.00 59 1005.1
20260510041304 62 69 18.0 24.0 0.00 0.00 0.00 58 1004.9
20260510040804 62 76 20.0 29.0 0.00 0.00 0.00 58 1004.6
20260510040304 62 73 19.0 26.0 0.00 0.00 0.00 58 1004.6
20260510040002 62 82 19.0 27.0 0.00 0.00 0.00 57 1004.6
20260510035804 62 79 22.0 26.0 0.00 0.00 0.00 57 1004.6
20260510035306 63 75 20.0 26.0 0.00 0.00 0.00 57 1004.6
20260510034804 63 71 21.0 26.0 0.00 0.00 0.00 57 1004.7
20260510034502 62 64 17.0 24.0 0.00 0.00 0.00 57 1004.6
20260510034306 63 72 18.0 24.0 0.00 0.00 0.00 57 1004.6
20260510033304 63 69 16.0 20.0 0.00 0.00 0.00 57 1004.8
20260510033139 63 64 15.0 20.0 0.00 0.00 0.00 57 1004.8
20260510032803 63 72 16.0 20.0 0.00 0.00 0.00 57 1004.8
20260510032306 63 77 14.0 21.0 0.00 0.00 0.00 57 1004.6
20260510031803 64 75 16.0 21.0 0.00 0.00 0.00 56 1004.5
20260510031502 63 66 14.0 20.0 0.00 0.00 0.00 56 1004.5
20260510031304 64 66 16.0 20.0 0.00 0.00 0.00 56 1004.3
20260510030804 64 65 16.0 23.0 0.00 0.00 0.00 55 1004.3
20260510030303 64 62 16.0 25.0 0.00 0.00 0.00 55 1004.2
20260510030105 64 71 16.0 25.0 0.00 0.00 0.00 55 1004.3
20260510025804 65 59 17.0 22.0 0.00 0.00 0.00 55 1004.2
20260510025306 65 66 17.0 20.0 0.00 0.00 0.00 54 1004.0
20260510024803 65 63 15.0 20.0 0.00 0.00 0.00 54 1003.9
20260510024502 65 77 15.0 26.0 0.00 0.00 0.00 53 1003.9
20260510024303 66 66 17.0 23.0 0.00 0.00 0.00 53 1003.9
20260510023803 66 58 18.0 26.0 0.00 0.00 0.00 52 1003.6
20260510023304 66 59 16.0 21.0 0.00 0.00 0.00 52 1003.5
20260510023102 66 58 14.0 25.0 0.00 0.00 0.00 52 1003.6
20260510021804 67 58 14.0 17.0 0.00 0.00 0.00 51 1003.4
20260510021602 67 52 13.0 21.0 0.00 0.00 0.00 51 1003.4
20260510021304 68 63 15.0 20.0 0.00 0.00 0.00 50 1003.3
20260510020804 68 60 16.0 23.0 0.00 0.00 0.00 49 1003.1
20260510020003 69 58 19.0 27.0 0.00 0.00 0.00 48 1002.7
20260510015306 69 58 20.0 24.0 0.00 0.00 0.00 47 1002.4
20260510014603 70 46 18.0 25.0 0.00 0.00 0.00 46 1002.6
20260510014305 70 51 20.0 23.0 0.00 0.00 0.00 45 1002.4
20260510013805 71 52 17.0 21.0 0.00 0.00 0.00 45 1002.4
20260510013304 71 58 16.0 20.0 0.00 0.00 0.00 44 1002.2
20260510013007 71 46 15.0 23.0 0.00 0.00 0.00 43 1002.2
20260510012805 72 52 15.0 21.0 0.00 0.00 0.00 43 1002.1
20260510012307 73 50 19.0 24.0 0.00 0.00 0.00 41 1001.9
20260510011805 74 49 21.0 29.0 0.00 0.00 0.00 40 1001.7
20260510011604 74 45 20.0 27.0 0.00 0.00 0.00 39 1001.6
20260510011305 75 51 21.0 26.0 0.00 0.00 0.00 38 1001.6
20260510010805 75 45 17.0 25.0 0.00 0.00 0.00 35 1001.6
20260510010305 76 33 9.0 12.0 0.00 0.00 0.00 31 1001.2
20260510010004 76 15 9.0 14.0 0.00 0.00 0.00 31 1001.2
20260510005805 77 21 10.0 14.0 0.00 0.00 0.00 30 1001.2
20260510005306 78 22 11.0 15.0 0.00 0.00 0.00 29 1001.0
20260510004805 78 17 12.0 16.0 0.00 0.00 0.00 28 1001.0
20260510004608 78 15 12.0 17.0 0.00 0.00 0.00 28 1001.0
20260510004305 79 14 12.0 16.0 0.00 0.00 0.00 27 1001.0
20260510003306 80 18 10.0 15.0 0.00 0.00 0.00 25 1000.9
20260510003003 80 25 12.0 16.0 0.00 0.00 0.00 25 1000.8
20260510002805 81 12 11.0 14.0 0.00 0.00 0.00 24 1000.8
20260510002307 82 6 13.0 18.0 0.00 0.00 0.00 23 1000.6
20260510001805 83 15 13.0 18.0 0.00 0.00 0.00 23 1000.5
20260510001605 83 43 13.0 18.0 0.00 0.00 0.00 23 1000.4
20260510001305 83 15 14.0 18.0 0.00 0.00 0.00 23 1000.4
20260510000805 84 21 14.0 20.0 0.00 0.00 0.00 23 1000.4
20260510000305 84 16 14.0 18.0 0.00 0.00 0.00 23 1000.4
20260510000008 84 25 12.0 23.0 0.00 0.00 0.00 23 1000.3
20260509235805 84 22 17.0 23.0 0.00 0.00 0.00 22 1000.4
20260509234805 85 22 12.0 18.0 0.00 0.00 0.00 23 1000.3
20260509234606 84 29 12.0 19.0 0.00 0.00 0.00 23 1000.2
20260509234305 85 39 15.0 20.0 0.00 0.00 0.00 22 1000.3
20260509233805 85 31 13.0 18.0 0.00 0.00 0.00 23 1000.2
20260509233005 85 25 14.0 19.0 0.00 0.00 0.00 23 1000.3
20260509232805 85 7 14.0 20.0 0.00 0.00 0.00 22 1000.2
20260509232306 85 25 15.0 21.0 0.00 0.00 0.00 22 1000.2
20260509231805 85 8 18.0 24.0 0.00 0.00 0.00 22 1000.0
20260509231602 85 6 19.0 24.0 0.00 0.00 0.00 22 1000.2
20260509231305 85 27 18.0 24.0 0.00 0.00 0.00 22 1000.2